Regional Weather Roundup
Issued by NWS

Home | Current Version | Previous Version | Graphics & Text | Print | Product List | Glossary On
Versions: 1 2 3 4 5 6 7 8 9 10 11 12 13 14 15 16 17 18 19 20 21 22 23 24 25 26 27 28 29 30 31 32 33 34 35 36 37 38 39 40 41 42 43 44 45 46 47 48 49 50
147
ASUS43 KIND 301759
RWRIN

WEATHER ROUNDUP FOR INDIANA
NATIONAL WEATHER SERVICE INDIANAPOLIS IN
200 PM EDT SAT JUL 30 2016

NOTE: "FAIR" INDICATES FEW OR NO CLOUDS BELOW 12,000 FEET WITH NO
SIGNIFICANT WEATHER AND/OR OBSTRUCTIONS TO VISIBILITY.

* - STATION DOES NOT REPORT WEATHER SUCH AS PRECIPITATION OR FOG.

+ - STATION NOT QUALITY CONTROLLED BY THE NATIONAL WEATHER SERVICE.
    USE DATA WITH CAUTION...ESPECIALLY DEWPOINT AND RELATIVE
    HUMIDITY OBSERVATIONS.

INZ001>003-010>013-019-020-301900-
NORTHWEST INDIANA

CITY           SKY/WX    TMP DP  RH WIND       PRES   REMARKS
KNOX *+        PTSUNNY   75  61  60 E5        29.98S
MONTICELLO +   PTSUNNY   78  65  64 SW3       29.97S
6HR MIN TEMP:  67; 6HR MAX TEMP:  78;


$$

LMZ046-743>745-301900-
SOUTHERN LAKE MICHIGAN

STATION/POSITION TIME  TEMP    WIND        PRES    WAVE
                       AIR SEA DIR/SP/G            HT
                 (UTC) (F)     (DEG/KT/KT) (MB)    (FT)
BURNS HARBOR     1709   70      60/ 10/ 13 1015.9R
MICHIGAN CITY    1700   71      40/  3/  4   N/A
5NW MICH CITY    1700   70 72  100/  6/  8   N/A     3

$$

INZ004-005-014>016-021>024-301900-
NORTH CENTRAL INDIANA

CITY           SKY/WX    TMP DP  RH WIND       PRES   REMARKS
ELKHART        PTSUNNY   75  66  73 E6        29.99S
GOSHEN         CLOUDY    75  64  68 SE3       29.98F
6HR MIN TEMP:  67; 6HR MAX TEMP:  75;

SOUTH BEND     PTSUNNY   76  65  68 N5        29.98F
6HR MIN TEMP:  66; 6HR MAX TEMP:  77;


$$

INZ006>009-017-018-025>027-301900-
NORTHEAST INDIANA

CITY           SKY/WX    TMP DP  RH WIND       PRES   REMARKS
ANGOLA *+        N/A     70  63  78 CALM      29.99S
FORT WAYNE     CLOUDY    80  67  64 CALM      29.97S
6HR MIN TEMP:  68; 6HR MAX TEMP:  81;


$$

INZ028-029-035-036-043>045-051>053-301900-
WEST CENTRAL INDIANA

CITY           SKY/WX    TMP DP  RH WIND       PRES   REMARKS
CRAWFORDSVL +  MOSUNNY   79  67  65 W5        29.97F
6HR MIN TEMP:  65; 6HR MAX TEMP:  79;

LAFAYETTE      PTSUNNY   77  69  76 N3        29.96S
6HR MIN TEMP:  67; 6HR MAX TEMP:  80;

TERRE HAUTE    MOSUNNY   81  65  58 W8        29.98S
6HR MIN TEMP:  70; 6HR MAX TEMP:  83;


$$

INZ030>032-037>040-046>048-054>057-064-065-301900-
CENTRAL INDIANA

CITY           SKY/WX    TMP DP  RH WIND       PRES   REMARKS
COLUMBUS       MOSUNNY   81  70  69 NW7       29.98S
INDIANAPOLIS   MOSUNNY   82  64  54 W10       29.98S
6HR MIN TEMP:  70; 6HR MAX TEMP:  84;

-EAGLE CREEK   MOSUNNY   84  65  52 CALM      29.97R
6HR MIN TEMP:  71; 6HR MAX TEMP:  84;

KOKOMO *+      CLOUDY    79  66  65 W6        29.97S
6HR MIN TEMP:  66; 6HR MAX TEMP:  81;

SHELBYVILLE    SUNNY     83  67  58 SW13      29.97S
6HR MIN TEMP:  69; 6HR MAX TEMP:  84;


$$

INZ033-034-041-042-049-050-058-059-301900-
EAST CENTRAL INDIANA

CITY           SKY/WX    TMP DP  RH WIND       PRES   REMARKS
MUNCIE         MOSUNNY   81  70  69 NW7       29.97F
6HR MIN TEMP:  70; 6HR MAX TEMP:  82;


$$

INZ060-061-067>069-081>083-085>088-301900-
SOUTHWEST INDIANA

CITY           SKY/WX    TMP DP  RH WIND       PRES   REMARKS
EVANSVILLE     PTSUNNY   83  71  67 W8        29.98F
6HR MIN TEMP:  77; 6HR MAX TEMP:  83;

HUNTINGBURG *+ CLOUDY    75  70  83 NW3       29.98F
6HR MIN TEMP:  72; 6HR MAX TEMP:  82; 6HR PCP:  0.01;


$$

INZ062-063-066-070>080-084-089>092-301900-
SOUTH CENTRAL AND SOUTHEAST INDIANA

CITY           SKY/WX    TMP DP  RH WIND       PRES   REMARKS
BLOOMINGTON    PTSUNNY   80  69  69 W5        29.99S
6HR MIN TEMP:  69; 6HR MAX TEMP:  82;

MADISON *+     PTSUNNY   81  68  65 NW3       30.00F
SEYMOUR +      PTSUNNY   84  66  54 W6        29.97

$$





USA.gov is the U.S. government's official web portal to all federal, state and local government web resources and services.